Weather History for Cut Bank, MT

Change the Weather History Date:

Tuesday, September 17, 2013

  Actual Average Record
Temperature  
Mean Temperature 61 °F 53 °F  
Max Temperature 73 °F 67 °F 90 °F (1981)
Min Temperature 49 °F 39 °F 24 °F (1973)
Degree Days  
Heating Degree Days 4 12  
Month to date heating degree days 20 159  
Since 1 July heating degree days 92 353  
Cooling Degree Days 0 0  
Month to date cooling degree days 31 6  
Year to date cooling degree days 226 159  
Growing Degree Days 12 (Base 50)    
Moisture  
Dew Point 41 °F    
Average Humidity 56    
Maximum Humidity 83    
Minimum Humidity 29    
Precipitation  
Precipitation 0.00 in 0.04 in 1.45 in (1996)
Month to date precipitation 2.00 0.75  
Year to date precipitation 13.02 9.41  
Snow  
Snow 0.00 in - - ()
Snow Depth 0.00 in    
Sea Level Pressure  
Sea Level Pressure 29.66 in    
Wind  
Wind Speed 9 mph (WSW)    
Max Wind Speed 22 mph    
Max Gust Speed 32 mph    
Visibility 10 miles    
Events      
T = Trace of Precipitation, MM = Missing Value Source: NWS Daily Summary

Daily Weather History Graph

Daily Weather History Graph

Search for Another Location

Airport:

Trip Planner

Search our weather history database for the weather conditions in past years. The results will help you decide how hot, cold, wet, or windy it might be!

Date:

Astronomy

Sep. 17, 2013 Rise Set
Actual Time 7:09 AM MDT 7:37 PM MDT
Civil Twilight 6:37 AM MDT 8:08 PM MDT
Nautical Twilight 6:00 AM MDT 8:45 PM MDT
Astronomical Twilight 5:21 AM MDT 9:24 PM MDT
Moon 6:30 PM MDT (9/17) 5:01 AM MDT (9/17)
Length of Visible Light 13h 30m
Length of Day
12h 27m
Waxing Gibbous, 96% of the Moon is Illuminated
Sep 17
Waxing Gibbous
Sep 19
Full
Sep 26
Last Quarter
Oct 4
New
Oct 11
First Quarter

Hourly Weather History & Observations

Time (MDT) Temp. Dew Point Humidity Pressure Visibility Wind Dir Wind Speed Gust Speed Precip Events Conditions
12:56 AM 61.0 °F 39.0 °F 44% 29.69 in 10.0 mi WSW 20.7 mph - N/A   Clear
1:56 AM 59.0 °F 39.0 °F 48% 29.70 in 10.0 mi West 9.2 mph - N/A   Clear
2:56 AM 57.9 °F 39.9 °F 51% 29.71 in 10.0 mi SW 11.5 mph - N/A   Clear
3:56 AM 53.1 °F 37.9 °F 57% 29.72 in 10.0 mi ENE 4.6 mph - N/A   Clear
4:56 AM 53.1 °F 39.0 °F 59% 29.74 in 10.0 mi NE 4.6 mph - N/A   Clear
5:56 AM 53.1 °F 39.9 °F 61% 29.74 in 10.0 mi WSW 12.7 mph - N/A   Clear
6:56 AM 52.0 °F 42.1 °F 69% 29.76 in 10.0 mi WNW 10.4 mph - N/A   Clear
7:56 AM 54.0 °F 42.1 °F 64% 29.76 in 10.0 mi West 13.8 mph - N/A   Clear
8:56 AM 61.0 °F 42.1 °F 50% 29.74 in 10.0 mi WNW 9.2 mph - N/A   Clear
9:56 AM 64.0 °F 42.1 °F 45% 29.73 in 10.0 mi West 11.5 mph - N/A   Clear
10:56 AM 66.9 °F 35.1 °F 31% 29.71 in 10.0 mi West 13.8 mph - N/A   Clear
11:56 AM 70.0 °F 37.0 °F 30% 29.70 in 10.0 mi WSW 12.7 mph 23.0 mph N/A   Clear
12:56 PM 70.0 °F 37.0 °F 30% 29.68 in 10.0 mi West 9.2 mph - N/A   Clear
1:56 PM 70.0 °F 37.0 °F 30% 29.66 in 10.0 mi South 6.9 mph - N/A   Clear
2:56 PM 71.1 °F 37.0 °F 29% 29.64 in 10.0 mi SSE 10.4 mph - N/A   Clear
3:56 PM 71.1 °F 37.0 °F 29% 29.62 in 10.0 mi ESE 5.8 mph - N/A   Clear
4:56 PM 71.1 °F 41.0 °F 34% 29.60 in 10.0 mi SE 11.5 mph - N/A   Partly Cloudy
5:56 PM 68.0 °F 45.0 °F 43% 29.59 in 10.0 mi South 8.1 mph - N/A   Clear
6:56 PM 66.9 °F 46.0 °F 47% 29.59 in 10.0 mi Calm Calm - N/A   Clear
7:56 PM 63.0 °F 46.0 °F 54% 29.59 in 10.0 mi East 3.5 mph - N/A   Clear
8:56 PM 59.0 °F 46.9 °F 64% 29.59 in 10.0 mi ENE 5.8 mph - N/A   Clear
9:48 PM 59.0 °F 46.4 °F 63% 29.64 in 10.0 mi NNE 4.6 mph - N/A   Partly Cloudy
9:56 PM 59.0 °F 46.0 °F 62% 29.57 in 10.0 mi NE 5.8 mph - N/A   Partly Cloudy
10:56 PM 55.9 °F 46.0 °F 69% 29.56 in 10.0 mi NE 3.5 mph - N/A   Partly Cloudy
11:56 PM 52.0 °F 46.0 °F 80% 29.56 in 10.0 mi NW 3.5 mph - N/A   Partly Cloudy